Weather History for Honolulu, HI

Change the Weather History Date:

Saturday, July 13, 2013

  Actual Average Record
Temperature  
Mean Temperature 80 °F 81 °F  
Max Temperature 87 °F 88 °F 92 °F (1985)
Min Temperature 73 °F 74 °F 70 °F (1958)
Degree Days  
Heating Degree Days 0 0  
Month to date heating degree days 0 0  
Since 1 June heating degree days 0 0  
Since 1 July heating degree days 0 0  
Cooling Degree Days 15 16  
Month to date cooling degree days 191 208  
Year to date cooling degree days 2060 2166  
Since 1 June cooling degree days 600 664  
Growing Degree Days 30 (Base 50)    
Moisture  
Dew Point 63 °F    
Average Humidity 57    
Maximum Humidity 73    
Minimum Humidity 40    
Precipitation  
Precipitation 0.00 in 0.02 in 0.61 in (1970)
Month to date precipitation 0.03 0.17  
Year to date precipitation 8.66 8.00  
Snow  
Snow 0.00 in - - ()
Month to date snowfall 0.0  
Since 1 June snowfall 0.0  
Since 1 July snowfall 0.0  
Snow Depth 0.00 in    
Sea Level Pressure  
Sea Level Pressure 29.99 in    
Wind  
Wind Speed 11 mph (NE)    
Max Wind Speed 21 mph    
Max Gust Speed 25 mph    
Visibility 10 miles    
Events      
T = Trace of Precipitation, MM = Missing Value Source: NWS Daily Summary

Daily Weather History Graph

Daily Weather History Graph

Search for Another Location

Airport:

Trip Planner

Search our weather history database for the weather conditions in past years. The results will help you decide how hot, cold, wet, or windy it might be!

Date:

Astronomy

Jul. 13, 2013 Rise Set
Actual Time 5:57 AM HST 7:17 PM HST
Civil Twilight 5:33 AM HST 7:41 PM HST
Nautical Twilight 5:04 AM HST 8:10 PM HST
Astronomical Twilight 4:34 AM HST 8:40 PM HST
Moon 10:39 AM HST (7/13) 10:53 PM HST (7/13)
Length of Visible Light 14h 08m
Length of Day
13h 19m
Waxing Crescent, 27% of the Moon is Illuminated
Jul 13
Waxing Crescent
Jul 15
First Quarter
Jul 22
Full
Jul 29
Last Quarter
Aug 6
New

Hourly Weather History & Observations

Time (HST) Temp. Heat Index Dew Point Humidity Pressure Visibility Wind Dir Wind Speed Gust Speed Precip Events Conditions
12:53 AM 75.0 °F - 63.0 °F 66% 30.01 in 10.0 mi NE 8.1 mph - N/A   Partly Cloudy
1:53 AM 75.0 °F - 63.0 °F 66% 30.00 in 10.0 mi NNE 5.8 mph - N/A   Partly Cloudy
2:53 AM 75.0 °F - 63.0 °F 66% 29.99 in 10.0 mi NNE 9.2 mph - N/A   Partly Cloudy
3:53 AM 73.9 °F - 64.0 °F 71% 29.98 in 10.0 mi NNE 5.8 mph - N/A   Partly Cloudy
4:53 AM 73.9 °F - 64.0 °F 71% 29.97 in 10.0 mi NE 6.9 mph - N/A   Scattered Clouds
5:53 AM 73.9 °F - 63.0 °F 68% 29.98 in 10.0 mi NNE 5.8 mph - N/A   Partly Cloudy
6:53 AM 73.9 °F - 63.0 °F 68% 30.00 in 10.0 mi NNE 8.1 mph - N/A   Partly Cloudy
7:53 AM 77.0 °F - 64.0 °F 64% 30.01 in 10.0 mi East 11.5 mph - N/A   Mostly Cloudy
8:53 AM 80.1 °F 81.2 °F 62.1 °F 54% 30.01 in 10.0 mi ESE 6.9 mph 17.3 mph N/A   Mostly Cloudy
9:53 AM 82.0 °F 83.4 °F 64.0 °F 54% 30.02 in 10.0 mi NE 15.0 mph 21.9 mph N/A   Mostly Cloudy
10:53 AM 84.0 °F 84.5 °F 62.1 °F 47% 30.01 in 10.0 mi NE 16.1 mph 21.9 mph N/A   Scattered Clouds
11:53 AM 86.0 °F 85.4 °F 59.0 °F 40% 30.00 in 10.0 mi ENE 15.0 mph 23.0 mph N/A   Scattered Clouds
12:53 PM 84.9 °F 85.0 °F 61.0 °F 44% 29.99 in 10.0 mi NE 15.0 mph 21.9 mph N/A   Scattered Clouds
1:53 PM 86.0 °F 86.3 °F 62.1 °F 44% 29.98 in 10.0 mi NE 12.7 mph 24.2 mph N/A   Mostly Cloudy
2:53 PM 84.9 °F 85.0 °F 61.0 °F 44% 29.97 in 10.0 mi NE 16.1 mph 25.3 mph N/A   Mostly Cloudy
3:53 PM 82.9 °F 84.0 °F 63.0 °F 51% 29.96 in 10.0 mi ENE 19.6 mph 23.0 mph N/A   Scattered Clouds
4:53 PM 82.9 °F 83.3 °F 61.0 °F 47% 29.95 in 10.0 mi NE 15.0 mph 24.2 mph N/A   Scattered Clouds
5:53 PM 82.0 °F 82.7 °F 61.0 °F 49% 29.95 in 10.0 mi NE 15.0 mph 21.9 mph N/A   Scattered Clouds
6:53 PM 79.0 °F - 63.0 °F 58% 29.96 in 10.0 mi ENE 13.8 mph - N/A   Scattered Clouds
7:53 PM 78.1 °F - 63.0 °F 60% 29.98 in 10.0 mi NE 11.5 mph - N/A   Mostly Cloudy
8:53 PM 77.0 °F - 64.0 °F 64% 29.99 in 10.0 mi NE 11.5 mph - N/A   Scattered Clouds
9:53 PM 77.0 °F - 63.0 °F 62% 30.00 in 10.0 mi East 9.2 mph - N/A   Scattered Clouds
10:53 PM 75.9 °F - 63.0 °F 64% 30.00 in 10.0 mi East 8.1 mph - N/A   Scattered Clouds
11:53 PM 75.9 °F - 63.0 °F 64% 29.99 in 10.0 mi East 9.2 mph - N/A   Scattered Clouds